Location: Arboyeti
(42.1122°N, 44.6017°E)
Time: 10:44:38
(UTC+00:00)

ISS - Pass Details

Date: 28 September 2021
Orbit: 417 x 423 km, 51.6° (Epoch: 20 October)

Event Time Altitude Azimuth Distance (km) Brightness Sun altitude
Rises 16:00:01 0° 304° (NW) 2,364 1.3 -14.1°
Reaches altitude 10° 16:02:36 10° 324° (NW) 1,500 -0.3 -14.5°
Maximum altitude 16:05:00 18° 10° (N) 1,105 -1.6 -15.0°
Enters shadow 16:06:22 15° 40° (NE) 1,245 -1.6 -15.2°
